Malmstrom AFB, MT

9:56 AM MDT on July 24, 2017 (GMT -0600)
Malmstrom AFB

Weather History for KGFA - October, 2013

Change the Weather History Date:

Friday, October 11, 2013

  Actual Average (KGTF) Record (KGTF)
Temperature  
Mean Temperature 42 °F -  
Max Temperature 50 °F 59 °F 90 °F (1934)
Min Temperature 34 °F 37 °F 10 °F (2009)
Degree Days  
Heating Degree Days 23    
Moisture  
Dew Point 32 °F    
Average Humidity 67    
Maximum Humidity 87    
Minimum Humidity 44    
Precipitation  
Precipitation 0.01 in - - ()
Sea Level Pressure  
Sea Level Pressure 30.07 in    
Wind  
Wind Speed 7 mph (West)    
Max Wind Speed 10 mph    
Max Gust Speed -    
Visibility 10 miles    
Events Rain    
Averages and records for this station are not official NWS values.
T = Trace of Precipitation, MM = Missing Value Source: NWS Daily Summary

Daily Weather History Graph

Daily Weather History Graph

Search for Another Location

Airport or City:

Trip Planner

Search our weather history database for the weather conditions in past years. The results will help you decide how hot, cold, wet, or windy it might be!

Date:

Astronomy

Oct. 11, 2013 Rise Set
Actual Time 7:38 AM MDT 6:43 PM MDT
Civil Twilight 7:07 AM MDT 7:14 PM MDT
Nautical Twilight 6:31 AM MDT 7:50 PM MDT
Astronomical Twilight 5:55 AM MDT 8:25 PM MDT
Moon 2:35 PM MDT (10/11) No Moon Set
Length of Visible Light 12h 07m
Length of Day
11h 05m
Waxing Crescent, 48% of the Moon is Illuminated
Oct 11
Waxing Crescent
Oct 11
First Quarter
Oct 18
Full
Oct 26
Last Quarter
Nov 3
New

Hourly Weather History & Observations

Time (MDT) Temp. Windchill Dew Point Humidity Pressure Visibility Wind Dir Wind Speed Gust Speed Precip Events Conditions
1:56 AM 46.0 °F 42.5 °F 28.9 °F 51% 29.91 in 10.0 mi SW 6.9 mph - N/A   Overcast
2:56 AM 46.0 °F 42.5 °F 28.9 °F 51% 29.92 in 10.0 mi SW 6.9 mph - N/A   Overcast
3:56 AM 45.0 °F 40.1 °F 28.0 °F 52% 29.96 in 10.0 mi West 9.2 mph - N/A   Overcast
4:56 AM 44.1 °F 40.1 °F 30.9 °F 60% 29.99 in 10.0 mi WNW 6.9 mph - 0.00 in   Overcast
5:56 AM 43.0 °F 38.8 °F 33.1 °F 68% 30.02 in 10.0 mi West 6.9 mph - N/A   Overcast
6:56 AM 41.0 °F 35.8 °F 33.1 °F 73% 30.06 in 10.0 mi West 8.1 mph - N/A   Overcast
8:56 AM 41.0 °F 35.2 °F 34.0 °F 76% 30.09 in 10.0 mi WSW 9.2 mph - 0.01 in Rain Light Rain
9:54 AM 39.2 °F 33.6 °F 35.6 °F 87% 29.98 in 10.0 mi West 8.1 mph - 0.00 in   Overcast
9:56 AM 39.9 °F 33.4 °F 35.1 °F 83% 30.12 in 10.0 mi West 10.4 mph - 0.00 in   Overcast
10:13 AM 41.0 °F 35.8 °F 35.6 °F 81% 29.99 in 10.0 mi West 8.1 mph - N/A   Overcast
10:56 AM 41.0 °F 35.8 °F 35.1 °F 79% 30.13 in 10.0 mi West 8.1 mph - N/A   Overcast
11:47 AM 42.8 °F 38.0 °F 33.8 °F 70% 30.00 in 10.0 mi WNW 8.1 mph - N/A   Overcast
11:56 AM 42.1 °F 37.1 °F 34.0 °F 73% 30.14 in 10.0 mi West 8.1 mph - N/A   Overcast
12:56 PM 44.1 °F 40.1 °F 34.0 °F 68% 30.11 in 10.0 mi West 6.9 mph - N/A   Overcast
1:05 PM 44.6 °F 42.2 °F 33.8 °F 66% 29.99 in 10.0 mi WNW 4.6 mph - N/A   Overcast
1:56 PM 46.9 °F - 33.1 °F 59% 30.10 in 10.0 mi West 4.6 mph - N/A   Overcast
2:56 PM 50.0 °F - 30.0 °F 46% 30.09 in 10.0 mi West 8.1 mph - N/A   Mostly Cloudy
3:56 PM 50.0 °F - 28.9 °F 44% 30.09 in 10.0 mi NNW 6.9 mph - N/A   Overcast
4:56 PM 48.9 °F - 33.1 °F 54% 30.10 in 10.0 mi NE 8.1 mph - N/A   Overcast
5:56 PM 48.9 °F - 32.0 °F 52% 30.11 in 10.0 mi NE 8.1 mph - N/A   Mostly Cloudy
6:56 PM 42.1 °F 38.4 °F 32.0 °F 67% 30.12 in 10.0 mi ENE 5.8 mph - N/A   Clear
7:56 PM 37.9 °F - 30.9 °F 76% 30.14 in - Calm Calm - N/A   Mostly Cloudy
8:56 PM 39.0 °F 36.8 °F 32.0 °F 76% 30.14 in 10.0 mi SE 3.5 mph - N/A   Overcast
9:56 PM 42.1 °F - 33.1 °F 70% 30.14 in 10.0 mi Calm Calm - N/A   Mostly Cloudy
10:56 PM 34.0 °F 29.8 °F 28.9 °F 82% 30.17 in 10.0 mi SE 4.6 mph - N/A   Clear
11:56 PM 34.0 °F 31.0 °F 28.9 °F 82% 30.17 in 10.0 mi South 3.5 mph - N/A   Mostly Cloudy